Weather History for Millinocket, ME

Change the Weather History Date:

Sunday, September 23, 2012

  Actual Average Record
Temperature  
Mean Temperature 53 °F 54 °F  
Max Temperature 66 °F 65 °F 91 °F (1914)
Min Temperature 40 °F 44 °F 25 °F (1904)
Degree Days  
Heating Degree Days 12 11  
Month to date heating degree days 126 161  
Since 1 July heating degree days 127 240  
Cooling Degree Days 0 0  
Month to date cooling degree days 14 15  
Year to date cooling degree days 443 266  
Growing Degree Days 4 (Base 50)    
Moisture  
Dew Point 51 °F    
Average Humidity 67    
Maximum Humidity 97    
Minimum Humidity 36    
Precipitation  
Precipitation 0.03 in 0.13 in 1.62 in (1967)
Month to date precipitation 2.64 2.73  
Year to date precipitation 26.03 29.66  
Sea Level Pressure  
Sea Level Pressure 29.86 in    
Wind  
Wind Speed 5 mph (West)    
Max Wind Speed 16 mph    
Max Gust Speed 23 mph    
Visibility 8 miles    
Events Rain    
T = Trace of Precipitation, MM = Missing Value Source: NWS Daily Summary

Daily Weather History Graph

Daily Weather History Graph

Search for Another Location

Airport:

Trip Planner

Search our weather history database for the weather conditions in past years. The results will help you decide how hot, cold, wet, or windy it might be!

Date:

Astronomy

Sep. 23, 2012 Rise Set
Actual Time 6:23 AM EDT 6:29 PM EDT
Civil Twilight 5:53 AM EDT 6:59 PM EDT
Nautical Twilight 5:19 AM EDT 7:33 PM EDT
Astronomical Twilight 4:43 AM EDT 8:09 PM EDT
Moon 2:43 PM EDT (9/23) No Moon Set
Length of Visible Light 13h 05m
Length of Day
12h 05m
First Quarter, 60% of the Moon is Illuminated
Sep 23
First Quarter
Sep 29
Full
Oct 8
Last Quarter
Oct 15
New
Oct 21
First Quarter

Hourly Weather History & Observations

Time (EDT) Temp. Dew Point Humidity Pressure Visibility Wind Dir Wind Speed Gust Speed Precip Events Conditions
12:53 AM 62.1 °F 60.1 °F 93% 29.83 in 10.0 mi Variable 3.5 mph - N/A   Overcast
1:46 AM 62.6 °F 60.8 °F 94% 29.81 in 10.0 mi Variable 3.5 mph - N/A   Overcast
1:53 AM 62.1 °F 60.1 °F 93% 29.82 in 10.0 mi Variable 3.5 mph - N/A   Overcast
2:08 AM 62.6 °F 59.0 °F 88% 29.80 in 10.0 mi Variable 3.5 mph - N/A   Overcast
2:33 AM 60.8 °F 59.0 °F 94% 29.80 in 10.0 mi Variable 4.6 mph - N/A   Overcast
2:53 AM 61.0 °F 59.0 °F 93% 29.81 in 10.0 mi Calm Calm - N/A   Overcast
3:53 AM 61.0 °F 57.9 °F 90% 29.79 in 10.0 mi SSE 4.6 mph - N/A   Overcast
4:20 AM 60.8 °F 57.2 °F 88% 29.77 in 6.0 mi Variable 4.6 mph - N/A   Overcast
4:53 AM 60.1 °F 57.9 °F 93% 29.79 in 4.0 mi Variable 3.5 mph - N/A   Overcast
5:03 AM 59.0 °F 57.2 °F 94% 29.78 in 1.8 mi SSE 5.8 mph - N/A   Overcast
5:14 AM 59.0 °F 57.2 °F 94% 29.77 in 1.2 mi Variable 3.5 mph - N/A   Overcast
5:21 AM 59.0 °F 57.2 °F 94% 29.78 in 2.0 mi Variable 6.9 mph - N/A   Overcast
5:32 AM 59.0 °F 57.2 °F 94% 29.78 in 3.0 mi South 5.8 mph - N/A   Overcast
5:43 AM 59.0 °F 57.2 °F 94% 29.79 in 2.5 mi South 4.6 mph - 0.02 in Rain Rain
5:51 AM 59.0 °F 57.2 °F 94% 29.79 in 6.0 mi Variable 3.5 mph - 0.02 in Rain Light Rain
5:53 AM 59.0 °F 57.0 °F 93% 29.81 in 8.0 mi Calm Calm - 0.02 in Rain Light Rain
6:03 AM 59.0 °F 57.2 °F 94% 29.79 in 10.0 mi Calm Calm - 0.00 in   Overcast
6:53 AM 59.0 °F 57.0 °F 93% 29.81 in 10.0 mi Calm Calm - 0.00 in   Overcast
7:14 AM 59.0 °F 57.2 °F 94% 29.81 in 10.0 mi West 3.5 mph - 0.01 in Rain Light Rain
7:53 AM 57.9 °F 55.0 °F 90% 29.83 in 10.0 mi NW 8.1 mph - 0.01 in   Overcast
8:15 AM 57.2 °F 53.6 °F 88% 29.83 in 10.0 mi WNW 4.6 mph - N/A   Overcast
9:53 AM 60.1 °F 52.0 °F 75% 29.87 in 10.0 mi WNW 6.9 mph - N/A   Overcast
10:53 AM 61.0 °F 48.9 °F 64% 29.87 in 10.0 mi WNW 8.1 mph 16.1 mph N/A   Mostly Cloudy
11:17 AM 62.6 °F 48.2 °F 59% 29.86 in 10.0 mi West 10.4 mph 16.1 mph N/A   Scattered Clouds
11:53 AM 64.0 °F 48.0 °F 56% 29.88 in 10.0 mi NW 12.7 mph 17.3 mph N/A   Scattered Clouds
12:53 PM 64.9 °F 44.1 °F 47% 29.89 in 10.0 mi West 6.9 mph - N/A   Scattered Clouds
1:53 PM 64.9 °F 44.1 °F 47% 29.89 in 10.0 mi WSW 8.1 mph 18.4 mph N/A   Mostly Cloudy
2:53 PM 64.0 °F 43.0 °F 46% 29.90 in 10.0 mi Variable 6.9 mph 16.1 mph N/A   Clear
3:53 PM 64.0 °F 41.0 °F 43% 29.92 in 10.0 mi West 8.1 mph 17.3 mph N/A   Clear
4:53 PM 64.0 °F 37.9 °F 38% 29.93 in 10.0 mi West 8.1 mph 17.3 mph N/A   Clear
5:53 PM 62.1 °F 36.0 °F 38% 29.96 in 10.0 mi West 8.1 mph - N/A   Clear
6:53 PM 57.0 °F 39.9 °F 53% 29.98 in 10.0 mi West 4.6 mph - N/A   Clear
7:53 PM 55.0 °F 37.9 °F 53% 30.00 in 10.0 mi West 4.6 mph - N/A   Clear
8:53 PM 50.0 °F 42.1 °F 74% 30.02 in 10.0 mi West 3.5 mph - N/A   Clear
9:53 PM 46.0 °F 41.0 °F 83% 30.04 in 10.0 mi Calm Calm - N/A   Clear
10:53 PM 44.1 °F 41.0 °F 89% 30.06 in 10.0 mi Calm Calm - N/A   Clear
11:53 PM 43.0 °F 39.9 °F 89% 30.06 in 10.0 mi Calm Calm - N/A   Clear